Flag for Canada Weather past 2 weeks in Kingston, Ontario, Canada

Now
70 °F

Passing clouds.


Feels Like: 70 °F
Forecast: 63 / 74 °F
Wind: 8 mph from Northeast

Location: Kingston

Current Time: Aug 22, 2014 at 9:55:48 PM

Latest Report: Aug 22, 2014 at 9:00 PM


Visibility: 15 mi

Pressure: 30.02 "Hg

Humidity: 88%

Dew point: 66 °F

Location of KingstonLocation

Historic Weather in Kingston — Graph

°F

Kingston temperature yesterday

Maximum temperature yesterday: 72 °F (at 1:00 PM)
Minimum temperature yesterday: 68 °F (at 6:00 AM)
Average temperature yesterday: 70 °F

Past Weeks' High & Low Weather Summary

 TemperatureHumidityPressure
High81 °F (Aug 11, 4:00 PM)100% (Aug 10, 7:00 AM)30.17 "Hg (Aug 10, 7:00 AM)
Low48 °F (Aug 19, 6:00 AM)41% (Aug 19, 3:00 PM)29.69 "Hg (Aug 13, 6:00 AM)
Average67 °F78%29.94 "Hg
* Reported Aug 7 8:00 PM — Aug 22 8:00 PM, Kingston, Weather by CustomWeather, © 2014

Note: Actual official high and low records may vary slightly from our data, if they occured in-between our weather recording intervals... More about our weather records

Advertising

Kingston weather history for previous 24 hours

 ConditionsComfort  
Time TempWeatherWind HumidityBarometerVisibility
8:00 PM
Aug 22
70 °FBroken clouds.8 mph88%30.01 "Hg15 mi
7:00 PM70 °FScattered showers. Broken clouds.7 mph94%30.01 "Hg12 mi
6:00 PM70 °FLight rain. Fog.9 mph94%30.01 "Hg6 mi
5:00 PM77 °FBroken clouds.10 mph74%29.99 "Hg12 mi
4:00 PM73 °FPartly sunny.9 mph78%29.99 "Hg12 mi
3:00 PM75 °FPartly sunny.6 mph74%29.99 "Hg10 mi
2:00 PM73 °FPartly sunny.8 mph83%30.00 "Hg10 mi
1:00 PM72 °FScattered showers. Cloudy.7 mph88%30.01 "Hg8 mi
12:00 PM72 °FMore clouds than sun.2 mph88%30.01 "Hg8 mi
11:00 AM70 °FCloudy.5 mph94%30.01 "Hg7 mi
10:00 AM66 °FLight rain. Fog.5 mph100%30.01 "Hg5 mi
9:00 AM66 °FLight rain. Fog.7 mph100%30.00 "Hg3 mi
8:00 AM66 °FFog.5 mph100%30.00 "Hg4 mi
7:49 AM66 °FFog.3 mph100%29.99 "Hg3 mi
7:00 AM64 °FFog.5 mph100%29.98 "Hg2 mi
6:00 AM64 °FFog.6 mph100%29.97 "Hg3 mi
11:00 PM
Aug 21
68 °FFog.8 mph100%29.96 "Hg5 mi
10:00 PM68 °FFog.2 mph100%29.95 "Hg6 mi
9:00 PM68 °FPartly sunny.7 mph94%29.94 "Hg8 mi
Weather by CustomWeather, © 2014

See weather overviewHow to use our weather pages